(152920) = 2000 EG29

Discovered at Socorro on 2000-03-05 by LINEAR.

Orbit

Orbit type: Main Belt

Note: WebGL enabled browser required.

epoch2024-03-31.0
epoch JD2460400.5
perihelion date2023-09-05.17485
perihelion JD2460192.67485
argument of perihelion (°)329.61095
ascending node (°)100.65974
inclination (°)5.17494
eccentricity0.1683414
perihelion distance (AU)1.8933475
Tisserand w.r.t. Jupiter3.6
ΔV w.r.t. Earth (km/sec)8.7
semimajor axis (AU)2.2765923
mean anomaly (°)59.63127
mean daily motion (°/day)0.28693000
aphelion distance (AU)2.660
period (years)3.44
P-vector [x]0.33555049
P-vector [y]0.88142377
P-vector [z]0.33241240
Q-vector [x]-0.93784260
Q-vector [y]0.27936845
Q-vector [z]0.20592357
absolute magnitude16.88
phase slope0.15
uncertainty0
referenceMPEC 2024-E109
observations used535
oppositions14
arc length (days)8798
first opposition used2000
last opposition used2024
residual rms (arc-secs)0.68
perturbers coarse indicatorM-v
perturbers precise indicator003Ek
first observation date used2000-02-03.0
last observation date used2024-03-06.0
computer nameMPCLINUX
JD of orbit computation2456937.233011
perihelion JD uncertainty (days)8.6585E-05
argument of perihelion uncertainty (°)7.7265E-05
ascending node uncertainty (°)7.3505E-05
inclination uncertainty (°)4.5882E-06
eccentricity uncertainty 4.6063E-08
perihelion distance uncertainty (AU)1.0508E-07
Minimum Orbit Intersection Distances (in AU)
for orbit epoch: 2460400.5, reference: E2024-GB3
Mercury1.58664
Venus1.17323
Earth0.91038
Mars0.33898
Jupiter2.61057
Saturn7.10186
Uranus16.0847
Neptune27.7404

Observations

543 total observations over interval: 2000 02 03.29778 – 2024 03 06.445744
These data are available for download (format description).

Date (UT) J2000 RA J2000 Dec Magn Location Ref
2000 02 03.29778 09 29 25.67 +20 49 07.8 19.1   704 – Lincoln Laboratory ETS, New Mexico MPS 12316
2000 02 03.31218 09 29 24.77 +20 49 13.1 19.3   704 – Lincoln Laboratory ETS, New Mexico MPS 12316
2000 02 03.32639 09 29 23.81 +20 49 20.8 19.3   704 – Lincoln Laboratory ETS, New Mexico MPS 12316
2000 02 03.34101 09 29 22.93 +20 49 29.2 19.3   704 – Lincoln Laboratory ETS, New Mexico MPS 12316
2000 02 03.35530 09 29 21.99 +20 49 34.9 18.7   704 – Lincoln Laboratory ETS, New Mexico MPS 12316
2000 02 05.34041 09 27 18.33 +21 05 04.8 18.4 R 695 – Kitt Peak MPS 12316
2000 02 05.44510 09 27 11.49 +21 05 52.5   695 – Kitt Peak MPS 12316
2000 02 11.30712 09 21 05.95 +21 48 34.7 18.9   704 – Lincoln Laboratory ETS, New Mexico MPS 12316
2000 02 11.32149 09 21 05.07 +21 48 41.1 19.4   704 – Lincoln Laboratory ETS, New Mexico MPS 12316
2000 02 11.33588 09 21 04.15 +21 48 46.7 19.4   704 – Lincoln Laboratory ETS, New Mexico MPS 12316
2000 02 11.35027 09 21 03.18 +21 48 51.8 18.9   704 – Lincoln Laboratory ETS, New Mexico MPS 12316
2000 02 11.36469 09 21 02.28 +21 48 57.8 19.1   704 – Lincoln Laboratory ETS, New Mexico MPS 12316
2000 03 05.11214 09 02 39.69 +23 30 43.4 19.9   704 – Lincoln Laboratory ETS, New Mexico MPS 11395
2000 03 05.12542 09 02 39.31 +23 30 44.4 19.6   704 – Lincoln Laboratory ETS, New Mexico MPS 11395
2000 03 05.13871 09 02 38.87 +23 30 47.7 19.8   704 – Lincoln Laboratory ETS, New Mexico MPS 11395
2000 03 05.15200 09 02 38.46 +23 30 48.2 20.0   704 – Lincoln Laboratory ETS, New Mexico MPS 11395
2000 03 09.24334 09 00 54.84 +23 37 00.6 19.7   704 – Lincoln Laboratory ETS, New Mexico MPS 11395
2000 03 09.25617 09 00 54.51 +23 37 01.6 19.7   704 – Lincoln Laboratory ETS, New Mexico MPS 11395
2000 03 09.26898 09 00 54.27 +23 37 02.9 20.5   704 – Lincoln Laboratory ETS, New Mexico MPS 11395
2000 03 09.28179 09 00 53.93 +23 37 04.1 19.6   704 – Lincoln Laboratory ETS, New Mexico MPS 11395
2002 10 04.32044 02 49 10.95 +06 28 09.4 19.0   704 – Lincoln Laboratory ETS, New Mexico MPS 65583
2002 10 04.35078 02 49 10.13 +06 28 02.9 19.4   704 – Lincoln Laboratory ETS, New Mexico MPS 65583
2002 10 04.36609 02 49 09.77 +06 27 58.6 19.3   704 – Lincoln Laboratory ETS, New Mexico MPS 65583
2002 10 04.38139 02 49 09.33 +06 27 55.6 19.4   704 – Lincoln Laboratory ETS, New Mexico MPS 65583
2002 10 15.24592 02 43 01.16 +05 42 38.4 18.6   644 – Palomar Mountain/NEAT MPS 65583
2002 10 15.32795 02 42 57.38 +05 42 17.5 18.6   644 – Palomar Mountain/NEAT MPS 65583
2002 10 15.39105 02 42 54.41 +05 42 01.4 18.7   644 – Palomar Mountain/NEAT MPS 65583
2002 10 26.55741 02 33 20.82 +04 57 03.9 20.0   608 – Haleakala-AMOS MPS 67628
2002 10 26.56839 02 33 20.16 +04 57 01.5 20.0   608 – Haleakala-AMOS MPS 67628
2002 10 26.57894 02 33 19.54 +04 56 58.6 20.6   608 – Haleakala-AMOS MPS 67628
2002 10 31.25625 02 28 47.15 +04 41 15.8 18.5   704 – Lincoln Laboratory ETS, New Mexico MPS 67628
2002 10 31.27333 02 28 46.07 +04 41 12.5 18.9   704 – Lincoln Laboratory ETS, New Mexico MPS 67628
2002 10 31.29045 02 28 44.99 +04 41 09.7 18.8   704 – Lincoln Laboratory ETS, New Mexico MPS 67628
2002 10 31.30753 02 28 43.92 +04 41 06.6 19.0   704 – Lincoln Laboratory ETS, New Mexico MPS 67628
2002 10 31.32464 02 28 42.88 +04 41 03.8 18.8   704 – Lincoln Laboratory ETS, New Mexico MPS 67628
2002 11 01.24391 02 27 48.70 +04 38 18.8 18.8   704 – Lincoln Laboratory ETS, New Mexico MPS 67628
2002 11 01.24403 02 27 48.52 +04 38 17.6 19.0   704 – Lincoln Laboratory ETS, New Mexico MPS 67628
2002 11 01.26105 02 27 47.53 +04 38 15.7 19.1   704 – Lincoln Laboratory ETS, New Mexico MPS 67628
2002 11 01.26118 02 27 47.57 +04 38 15.2 19.0   704 – Lincoln Laboratory ETS, New Mexico MPS 67628
2002 11 01.26130 02 27 47.46 +04 38 15.4 18.8   704 – Lincoln Laboratory ETS, New Mexico MPS 67628
2002 11 01.27815 02 27 46.56 +04 38 12.5 19.2   704 – Lincoln Laboratory ETS, New Mexico MPS 67628
2002 11 01.27828 02 27 46.44 +04 38 12.9 19.4   704 – Lincoln Laboratory ETS, New Mexico MPS 67628
2002 11 01.27840 02 27 46.48 +04 38 11.6 19.5   704 – Lincoln Laboratory ETS, New Mexico MPS 67628
2002 11 01.29553 02 27 45.34 +04 38 10.2 18.9   704 – Lincoln Laboratory ETS, New Mexico MPS 67628
2002 11 01.29565 02 27 45.36 +04 38 10.5 19.6   704 – Lincoln Laboratory ETS, New Mexico MPS 67628
2002 11 01.29577 02 27 45.29 +04 38 08.9 18.8   704 – Lincoln Laboratory ETS, New Mexico MPS 67628
2002 11 01.31257 02 27 44.38 +04 38 07.0 18.9   704 – Lincoln Laboratory ETS, New Mexico MPS 67628
2002 11 01.31270 02 27 44.34 +04 38 06.8 18.7   704 – Lincoln Laboratory ETS, New Mexico MPS 67628
2002 11 01.31282 02 27 44.26 +04 38 06.7 19.1   704 – Lincoln Laboratory ETS, New Mexico MPS 67628
2002 11 05.21764 02 23 52.98 +04 27 59.4 18.4   704 – Lincoln Laboratory ETS, New Mexico MPS 65583
2002 11 05.23450 02 23 51.85 +04 27 57.8 18.5   704 – Lincoln Laboratory ETS, New Mexico MPS 65583
2002 11 05.25177 02 23 50.86 +04 27 54.0 19.1   704 – Lincoln Laboratory ETS, New Mexico MPS 65583
2002 11 05.26825 02 23 49.79 +04 27 52.4 18.9   704 – Lincoln Laboratory ETS, New Mexico MPS 65583
2002 11 05.28498 02 23 48.80 +04 27 50.7 18.8   704 – Lincoln Laboratory ETS, New Mexico MPS 65583
2002 11 06.18742 02 22 56.05 +04 25 53.5 18.2 R 699 – Lowell Observatory-LONEOS MPS 65583
2002 11 06.20829 02 22 54.80 +04 25 50.4   699 – Lowell Observatory-LONEOS MPS 65583
2002 11 06.22904 02 22 53.58 +04 25 46.5   699 – Lowell Observatory-LONEOS MPS 65583
2002 11 06.24987 02 22 52.21 +04 25 45.4   699 – Lowell Observatory-LONEOS MPS 65583
2002 11 07.27405 02 21 52.47 +04 23 44.4 18.5   704 – Lincoln Laboratory ETS, New Mexico MPS 65583
2002 11 07.29173 02 21 51.36 +04 23 42.3 19.1   704 – Lincoln Laboratory ETS, New Mexico MPS 65583
2002 11 07.30951 02 21 50.29 +04 23 40.9 18.5   704 – Lincoln Laboratory ETS, New Mexico MPS 65583
2002 11 07.32696 02 21 49.21 +04 23 39.0 18.9   704 – Lincoln Laboratory ETS, New Mexico MPS 65583
2002 11 07.34449 02 21 48.11 +04 23 37.1 18.9   704 – Lincoln Laboratory ETS, New Mexico MPS 65583
2002 11 11.23900 02 18 08.07 +04 17 53.8 18.6   704 – Lincoln Laboratory ETS, New Mexico MPS 65583
2002 11 11.25609 02 18 07.02 +04 17 53.2 19.0   704 – Lincoln Laboratory ETS, New Mexico MPS 65583
2002 11 11.27347 02 18 06.07 +04 17 51.6 18.7   704 – Lincoln Laboratory ETS, New Mexico MPS 65583
2002 11 11.29075 02 18 05.06 +04 17 50.3 19.1   704 – Lincoln Laboratory ETS, New Mexico MPS 65583
2002 11 11.30807 02 18 04.06 +04 17 49.4 18.4   704 – Lincoln Laboratory ETS, New Mexico MPS 65583
2002 11 30.17619 02 05 06.68 +04 38 54.4 19.3   704 – Lincoln Laboratory ETS, New Mexico MPS 67628
2002 11 30.19110 02 05 06.30 +04 38 57.8 19.7   704 – Lincoln Laboratory ETS, New Mexico MPS 67628
2002 11 30.20588 02 05 05.85 +04 39 00.1 19.2   704 – Lincoln Laboratory ETS, New Mexico MPS 67628
2002 12 08.27749 02 03 03.05 +05 13 01.1 19.7   644 – Palomar Mountain/NEAT MPS 67628
2002 12 08.29921 02 03 02.85 +05 13 07.2 19.9   644 – Palomar Mountain/NEAT MPS 67628
2002 12 08.32046 02 03 02.65 +05 13 13.9 20.0   644 – Palomar Mountain/NEAT MPS 67628
2005 08 05.35338 21 38 01.13 -19 47 22.5 19.4   644 – Palomar Mountain/NEAT MPS 139216
2005 08 05.37570 21 37 59.82 -19 47 31.7 19.4   644 – Palomar Mountain/NEAT MPS 139216
2005 08 05.40319 21 37 58.19 -19 47 43.9 19.5   644 – Palomar Mountain/NEAT MPS 139216
2005 09 01.20097 21 11 55.66 -22 31 27.3 20.0   644 – Palomar Mountain/NEAT MPS 140927
2005 09 01.22365 21 11 54.50 -22 31 33.2 19.6   644 – Palomar Mountain/NEAT MPS 140927
2005 09 01.24475 21 11 53.38 -22 31 38.5 19.8   644 – Palomar Mountain/NEAT MPS 140927
2006 11 24.47275 10 37 40.11 +11 25 39.7 20.9 V G96 – Mt. Lemmon Survey MPS 190268
2006 11 24.47835 10 37 40.54 +11 25 37.8 21.5 V G96 – Mt. Lemmon Survey MPS 190268
2006 11 24.48419 10 37 41.05 +11 25 36.1 21.6 V G96 – Mt. Lemmon Survey MPS 190268
2006 11 24.48976 10 37 41.52 +11 25 34.2 20.9 V G96 – Mt. Lemmon Survey MPS 190268
2007 02 22.26202 11 00 51.51 +14 46 46.7 19.0 R 699 – Lowell Observatory-LONEOS MPS 200249
2007 02 22.28396 11 00 50.15 +14 46 55.9   699 – Lowell Observatory-LONEOS MPS 200249
2007 02 22.30584 11 00 48.91 +14 47 08.9   699 – Lowell Observatory-LONEOS MPS 200249
